Time,TemperatureF,DewpointF,PressureIn,WindDirection,WindDirectionDegrees,WindSpeedMPH,WindSpeedGustMPH,Humidity,HourlyPrecipIn,Conditions,Clouds,dailyrainin,SolarRadiationWatts/m^2,SoftwareType,DateUTC
2013-01-31 00:00:00,69.4,67.6,29.95,SSE,157,16.0,16.0,94,0.00,,,0.00,0,Wunderground v.1.15,2013-01-31 05:00:00,
2013-01-31 00:30:00,69.4,67.6,29.94,SSE,165,16.0,16.0,94,0.00,,,0.00,0,Wunderground v.1.15,2013-01-31 05:30:00,
2013-01-31 01:00:00,69.3,67.5,29.93,SSE,155,15.0,15.0,94,0.00,,,0.00,0,Wunderground v.1.15,2013-01-31 06:00:00,
2013-01-31 01:30:00,64.7,62.3,29.87,WNW,299,23.0,30.0,92,0.00,,,0.00,0,Wunderground v.1.15,2013-01-31 06:30:00,
2013-01-31 02:00:00,62.0,59.0,29.91,NW,324,23.0,26.0,90,0.00,,,0.00,0,Wunderground v.1.15,2013-01-31 07:00:00,
2013-01-31 02:30:00,61.0,58.7,29.97,NW,311,20.0,23.0,92,0.00,,,0.00,0,Wunderground v.1.15,2013-01-31 07:30:00,
2013-01-31 03:00:00,60.5,58.2,29.99,NW,308,22.0,22.0,92,0.00,,,0.01,0,Wunderground v.1.15,2013-01-31 08:00:00,
2013-01-31 03:30:00,61.5,58.5,30.01,NNW,332,15.0,15.0,90,0.00,,,0.01,0,Wunderground v.1.15,2013-01-31 08:30:00,
2013-01-31 04:00:00,61.6,58.9,30.01,NNW,329,9.0,11.0,91,0.00,,,0.01,0,Wunderground v.1.15,2013-01-31 09:00:00,
2013-01-31 04:30:00,62.0,59.3,30.04,NNW,329,10.0,10.0,91,0.00,,,0.01,0,Wunderground v.1.15,2013-01-31 09:30:00,
2013-01-31 05:00:00,62.6,59.6,30.02,NNW,338,11.0,12.0,90,0.00,,,0.01,0,Wunderground v.1.15,2013-01-31 10:00:00,
2013-01-31 05:30:00,62.7,60.0,30.03,NNW,339,11.0,11.0,91,0.00,,,0.01,0,Wunderground v.1.15,2013-01-31 10:30:00,
2013-01-31 06:00:00,63.4,58.8,30.04,NNW,331,16.0,16.0,85,0.00,,,0.02,0,Wunderground v.1.15,2013-01-31 11:00:00,
2013-01-31 06:30:00,63.6,57.7,30.05,NW,318,22.0,22.0,81,0.00,,,0.02,0,Wunderground v.1.15,2013-01-31 11:30:00,
2013-01-31 07:00:00,63.8,56.8,30.07,NW,319,25.0,28.0,78,0.00,,,0.02,0,Wunderground v.1.15,2013-01-31 12:00:00,
2013-01-31 07:30:00,62.7,54.7,30.08,NNW,329,27.0,27.0,75,0.00,,,0.02,7,Wunderground v.1.15,2013-01-31 12:30:00,
2013-01-31 08:00:00,62.4,53.3,30.09,NW,311,25.0,25.0,72,0.00,,,0.02,72,Wunderground v.1.15,2013-01-31 13:00:00,
2013-01-31 08:30:00,61.8,51.9,30.11,NNW,333,22.0,22.0,70,0.00,,,0.02,163,Wunderground v.1.15,2013-01-31 13:30:00,
2013-01-31 09:00:00,60.8,53.5,30.12,NW,316,25.0,27.0,77,0.00,,,0.02,311,Wunderground v.1.15,2013-01-31 14:00:00,
2013-01-31 09:30:00,60.3,49.7,30.14,NW,323,22.0,24.0,68,0.00,,,0.02,355,Wunderground v.1.15,2013-01-31 14:30:00,
2013-01-31 10:00:00,59.7,48.3,30.15,NNW,330,21.0,21.0,66,0.00,,,0.02,455,Wunderground v.1.15,2013-01-31 15:00:00,
2013-01-31 10:30:00,59.8,45.9,30.16,NW,321,19.0,19.0,60,0.00,,,0.02,540,Wunderground v.1.15,2013-01-31 15:30:00,
2013-01-31 11:00:00,59.5,46.5,30.16,NNW,338,17.0,17.0,62,0.00,,,0.02,591,Wunderground v.1.15,2013-01-31 16:00:00,
2013-01-31 11:30:00,59.1,47.3,30.16,NNW,329,17.0,19.0,65,0.00,,,0.02,664,Wunderground v.1.15,2013-01-31 16:30:00,
2013-01-31 12:00:00,59.1,44.8,30.16,NW,313,16.0,16.0,59,0.00,,,0.02,694,Wunderground v.1.15,2013-01-31 17:00:00,
2013-01-31 12:30:00,58.9,47.6,30.16,NW,304,12.0,12.0,66,0.00,,,0.02,714,Wunderground v.1.15,2013-01-31 17:30:00,
2013-01-31 13:00:00,58.9,45.9,30.16,NNW,338,17.0,17.0,62,0.00,,,0.02,717,Wunderground v.1.15,2013-01-31 18:00:00,
2013-01-31 13:30:00,58.3,42.2,30.15,NW,309,22.0,25.0,55,0.00,,,0.02,728,Wunderground v.1.15,2013-01-31 18:30:00,
2013-01-31 14:00:00,57.8,43.1,30.15,NW,310,20.0,20.0,58,0.00,,,0.02,687,Wunderground v.1.15,2013-01-31 19:00:00,
2013-01-31 14:30:00,57.7,43.9,30.16,NW,319,20.0,21.0,60,0.00,,,0.02,647,Wunderground v.1.15,2013-01-31 19:30:00,
2013-01-31 15:00:00,57.3,42.2,30.16,NW,314,21.0,24.0,57,0.00,,,0.02,559,Wunderground v.1.15,2013-01-31 20:00:00,
2013-01-31 15:30:00,57.2,43.4,30.16,WNW,297,22.0,28.0,60,0.00,,,0.02,459,Wunderground v.1.15,2013-01-31 20:30:00,
2013-01-31 16:00:00,57.2,43.0,30.16,NW,311,22.0,23.0,59,0.00,,,0.02,418,Wunderground v.1.15,2013-01-31 21:00:00,
2013-01-31 16:30:00,57.5,42.4,30.16,NNW,327,21.0,22.0,57,0.00,,,0.02,327,Wunderground v.1.15,2013-01-31 21:30:00,
2013-01-31 17:00:00,57.9,42.8,30.17,NW,317,22.0,23.0,57,0.00,,,0.02,221,Wunderground v.1.15,2013-01-31 22:00:00,
2013-01-31 17:30:00,57.7,39.7,30.18,NNW,336,20.0,20.0,51,0.00,,,0.02,121,Wunderground v.1.15,2013-01-31 22:30:00,
2013-01-31 18:00:00,57.2,38.7,30.18,NNW,331,17.0,20.0,50,0.00,,,0.02,25,Wunderground v.1.15,2013-01-31 23:00:00,
2013-01-31 18:30:00,57.0,38.0,30.19,NW,317,19.0,21.0,49,0.00,,,0.02,0,Wunderground v.1.15,2013-01-31 23:30:00,
2013-01-31 19:00:00,56.7,37.2,30.20,NW,315,18.0,18.0,48,0.00,,,0.02,0,Wunderground v.1.15,2013-02-01 00:00:00,
2013-01-31 19:30:00,56.6,35.5,30.21,NNW,331,16.0,16.0,45,0.00,,,0.02,0,Wunderground v.1.15,2013-02-01 00:30:00,
2013-01-31 20:00:00,56.4,37.5,30.22,NNW,327,13.0,19.0,49,0.00,,,0.02,0,Wunderground v.1.15,2013-02-01 01:00:00,
2013-01-31 20:30:00,56.2,39.8,30.23,NNW,329,18.0,18.0,54,0.00,,,0.02,0,Wunderground v.1.15,2013-02-01 01:30:00,
2013-01-31 21:00:00,56.0,38.6,30.23,NNW,342,17.0,17.0,52,0.00,,,0.02,0,Wunderground v.1.15,2013-02-01 02:00:00,
2013-01-31 21:30:00,55.8,42.5,30.25,NNW,344,8.0,12.0,61,0.00,,,0.02,0,Wunderground v.1.15,2013-02-01 02:30:00,
2013-01-31 22:00:00,55.9,44.7,30.25,NNW,342,11.0,16.0,66,0.00,,,0.02,0,Wunderground v.1.15,2013-02-01 03:00:00,
2013-01-31 22:30:00,55.8,43.4,30.24,North,9,10.0,11.0,63,0.00,,,0.02,0,Wunderground v.1.15,2013-02-01 03:30:00,
2013-01-31 23:00:00,55.7,44.5,30.25,North,9,10.0,10.0,66,0.00,,,0.02,0,Wunderground v.1.15,2013-02-01 04:00:00,
2013-01-31 23:30:00,55.9,43.9,30.27,NW,326,15.0,20.0,64,0.00,,,0.02,0,Wunderground v.1.15,2013-02-01 04:30:00,